Regional Weather Roundup
Issued by NWS Green Bay, WI

Home | Current Version | Previous Version | Graphics & Text | Print | Product List | Glossary Off
Versions: 1 2 3 4 5 6 7 8 9 10 11 12 13 14 15 16 17 18 19 20 21 22 23 24 25 26 27 28 29 30 31 32 33 34 35 36 37 38 39 40 41 42 43 44 45 46 47 48 49 50

000
ASUS43 KGRB 210010
RWRGRB

NORTH-CENTRAL AND NORTHEAST WISCONSIN REGIONAL WEATHER ROUNDUP
NATIONAL WEATHER SERVICE GREEN BAY WI
700 PM CDT SAT SEP 20 2014

WIZ005-009-010>012-018-019-210100-
NORTH CENTRAL WISCONSIN

CITY           SKY/WX    TMP DP  RH WIND       PRES   REMARKS
IRONWOOD       CLEAR     57  52  82 CALM      29.68F
MANITOWISH WTR CLEAR     59  54  82 N5        29.71S
ARBOR VITAE    CLEAR     62  53  72 N5        29.71S
EAGLE RIVER    CLEAR     60  53  77 N3        29.72R
LAND O LAKES   CLEAR     59  53  81 CALM      29.74R
RHINELANDER    CLEAR     63  53  70 NW5       29.72R
PHILLIPS       CLOUDY    62  53  72 NW3       29.70F
ANTIGO         PTCLDY    64  55  71 W6        29.71S
TOMAHAWK       CLEAR     61  52  72 CALM      29.72S
MERRILL        PTCLDY    65  56  72 W6        29.71S
$$

WIZ013-073-210100-
NORTHEAST WISCONSIN

CITY           SKY/WX    TMP DP  RH WIND       PRES   REMARKS
IRON MOUNTAIN  PTCLDY    64  54  69 NW6       29.68S
MARINETTE      PTCLDY    66  57  72 CALM      29.65S
OCONTO         PTCLDY    66  64  91 CALM      29.66S
$$

WIZ017-030-035>037-045-210100-
CENTRAL WISCONSIN

CITY           SKY/WX    TMP DP  RH WIND       PRES   REMARKS
MEDFORD        PTCLDY    63  55  74 CALM      29.72F
WAUSAU         CLEAR     67  56  67 W7        29.70S
MOSINEE        PTCLDY    64  57  77 W7        29.73R
MARSHFIELD     CLEAR     66  56  70 W6        29.72S
WISC RAPIDS    CLEAR     66  57  72 SW5       29.73F
STEVENS POINT  CLEAR     67  56  69 SW5       29.72S
WAUPACA        CLEAR     70  58  65 W3        29.71S
SHAWANO        PTCLDY    71  58  62 W7        29.69R
CLINTONVILLE   CLEAR     70  55  60 W6        29.69R
$$

WIZ038-039-048-051-210100-
FOX VALLEY

CITY           SKY/WX    TMP DP  RH WIND       PRES   REMARKS
NWS GREEN BAY  CLEAR     68  60  75 W8        29.68S
APPLETON       PTCLDY    70  61  73 W7        29.71R
OSHKOSH        PTCLDY    70  63  78 VRB3      29.71R
FOND DU LAC    CLEAR     69  62  78 SW5       29.72S
$$

WIZ022-050-052-210100-
EAST CENTRAL WISCONSIN

CITY           SKY/WX    TMP DP  RH WIND       PRES   REMARKS
STURGEON BAY   CLOUDY    68  63  83 W7        29.67R
MANITOWOC      PTCLDY    69  64  84 SW8       29.70R
SHEBOYGAN      CLEAR     67  61  81 SW9       29.71S
$$

LMZ563-521-522-541>543-210100-
LAKESHORE

STATION/POSITION TIME  TEMP    WIND        PRES    VSBY  WAVE
                       AIR SEA DIR/SP/G                  HT/PER
                 (UTC) (F)     (DEG/KT/KT) (MB)    (MI)  (FT/S)
SHEBOYGAN LKSHOR 0000   71 53  240/  8/  9 1006.0R
KEWAUNEE LKSHORE 0000   71     220/  6/  9 1004.1F
NORTHPORT PIER   0000   67     270/  4/  4 1004.1S
N MID LAKE BUOY  0000   61 58  290/  8/ 10 1003.7F         4/ 6
S GREEN BAY BUOY 0000   63     VRB  4/  6  1005.5R
SISTER BAY LKSHO 2300          270/  4/  5   N/A
CHAMBERS ISLAND  0000   64      CALM  /  1 1004.4S
MENOMINEE LKSHOR 0000   69     320/  4/  5 1004.8F
$$



USA.gov is the U.S. government's official web portal to all federal, state and local government web resources and services.